Notices

What's New in latest Release from April 7th, 2021:

- Updated Glossary, including Speed of Maximum Gust, and Total Hourly Precipitation

- Updated national and regional climate services offices contacts and prices information

- Addition of station inventory lists for 1981-2010, 1971-2000, and 1961-1990 Normals.

If you haven't already, please take our survey and provide feedback about our website: https://eccc.sondage-survey.ca/f/LanguageSelection.aspx?s=442ca660-fcf1-47c0-95a9-59707d6fd709

Hourly Data Report for November 04, 2019

VICTORIA UNIVERSITY CS
BRITISH COLUMBIA
Current Station Operator: ECCC - MSC

48°27'25.200" N
123°18'16.600" W
60.10 m
1018598
71783
WYJ

Download Data

Hourly Data (November 2019)
Hourly Data Report for November 4, 2019
TIME
LST
Temp Definition
°C
Dew Point Definition
°C
Rel Hum Definition
%
Precip. Amount Definition
mm

Wind Dir Definition
10's deg

Wind Spd Definition
km/h
Visibility Definition
km
Stn Press Definition
kPa
Hmdx Definition


Wind Chill Definition


Weather Definition


00:00 7.0 6.8 99 0.0 24 2   101.60     LegendNANA
01:00 6.0 5.6 98 0.0 0 1   101.59     LegendNANA
02:00 5.3 5.1 98 0.0 30 3   101.60     LegendNANA
03:00 5.9 5.6 98 0.0 32 2   101.59     LegendNANA
04:00 5.2 5.0 99 0.0 34 3   101.58     LegendNANA
05:00 6.0 5.9 99 0.0 0 1   101.58     LegendNANA
06:00 6.1 6.0 99 0.0 0 1   101.59     LegendNANA
07:00 7.6 7.4 99 0.0 2 3   101.61     LegendNANA
08:00 7.4 7.1 98 0.0 1 2   101.62     LegendNANA
09:00 9.2 8.3 94 0.0 36 7   101.64     LegendNANA
10:00 10.5 8.9 89 0.0 36 7   101.65     LegendNANA
11:00 10.0 8.2 89 0.0 36 5   101.67     LegendNANA
12:00 10.8 8.3 84 0.0 35 5   101.63     LegendNANA
13:00 11.7 8.0 78 0.0 33 4   101.59     LegendNANA
14:00 10.7 7.9 83 0.0 1 4   101.55     LegendNANA
15:00 10.4 8.2 86 0.0 18 4   101.55     LegendNANA
16:00 10.3 8.2 87 0.0   0   101.56     LegendNANA
17:00 9.9 8.1 89 0.0 25 3   101.55     LegendNANA
18:00 9.8 8.1 90 0.0 8 2   101.57     LegendNANA
19:00 9.5 8.1 91 0.0 6 1   101.57     LegendNANA
20:00 9.4 8.1 91 0.0 0 1   101.58     LegendNANA
21:00 9.6 8.0 90 0.0 24 3   101.59     LegendNANA
22:00 9.5 8.0 90 0.0 27 2   101.61     LegendNANA
23:00 9.7 7.9 89 0.0 24 3   101.60     LegendNANA

Notes on Data Quality.

Legend

  • E = Estimated
  • M = Missing
  • NA = Not Available*
  • [empty] = Indicates an unobserved value
Date modified: